Stations météo

Publicité
New York City, ny, Etats-Unis (2074728): Température de l'air & dewpoint: 17.10.2018 19:00:00 - 23.10.2018 19:00:00 (EDT)New York City, ny, Etats-Unis (2074728): reduced air pressure: 17.10.2018 19:00:00 - 23.10.2018 19:00:00 (EDT)New York City, ny, Etats-Unis (2074728): visibility: 17.10.2018 19:00:00 - 23.10.2018 19:00:00 (EDT)New York City, ny, Etats-Unis (2074728): Quantités de précipitations: 17.10.2018 19:00:00 - 23.10.2018 19:00:00 (EDT)
Date & Time tt [°C] td [°C] ppp [hPa] vv [km] rr [mm]
23.10.2018 19:00:00 13,9 4,4 1014,4 - 0,0
23.10.2018 18:00:00 16,1 2,2 1012,6 - -
23.10.2018 17:00:00 16,7 2,8 1012,3 - -
23.10.2018 16:00:00 16,7 3,3 1012,5 10 -
23.10.2018 15:00:00 16,7 5,0 1013,1 10 -
23.10.2018 14:00:00 16,1 5,6 1013,7 10 -
23.10.2018 13:00:00 15,6 6,7 1014,8 10 -
23.10.2018 12:00:00 13,9 6,1 1016,4 - -
23.10.2018 11:00:00 12,8 6,1 1017,1 - -
23.10.2018 10:00:00 12,8 6,7 1017,6 - -
23.10.2018 09:00:00 12,2 6,7 1018,0 - -
23.10.2018 08:00:00 10,6 6,7 1018,0 - -
23.10.2018 07:00:00 10,6 5,6 1018,4 - -
23.10.2018 06:00:00 10,6 5,6 1018,8 - -
23.10.2018 05:00:00 9,4 6,1 1019,1 - -
23.10.2018 04:00:00 10,0 5,0 1019,7 - -
23.10.2018 03:00:00 10,0 3,3 1020,1 - -
23.10.2018 02:00:00 9,4 3,9 1020,8 - -
23.10.2018 01:00:00 9,4 3,3 1021,4 - -
23.10.2018 00:00:00 9,4 2,2 1021,7 - -
22.10.2018 23:00:00 9,4 2,2 1021,9 10 -
22.10.2018 22:00:00 9,4 2,2 1021,8 10 -
22.10.2018 21:00:00 9,4 1,1 1021,8 10 -
22.10.2018 20:00:00 10,0 0,6 1021,7 10 -
22.10.2018 19:00:00 9,4 1,1 1021,6 10 -
22.10.2018 18:00:00 9,4 1,1 1021,4 - -
22.10.2018 17:00:00 9,4 1,7 1021,5 - -
22.10.2018 16:00:00 10,0 1,7 1021,7 - -
22.10.2018 15:00:00 10,0 1,7 1021,9 - -
22.10.2018 14:00:00 10,0 1,1 1022,7 - -
22.10.2018 13:00:00 8,9 -0,6 1023,5 - -
22.10.2018 12:00:00 8,9 -0,6 1024,0 - -
22.10.2018 11:00:00 8,3 0,0 1024,3 - -
22.10.2018 10:00:00 7,2 0,0 1024,5 - -
22.10.2018 09:00:00 6,1 0,0 1024,4 - -
22.10.2018 08:00:00 5,6 -0,6 1023,5 - -
22.10.2018 07:00:00 4,4 -1,1 1023,3 10 -
22.10.2018 06:00:00 3,9 -1,7 1023,1 10 -
22.10.2018 05:00:00 3,9 -1,7 1022,8 10 -
22.10.2018 04:00:00 3,9 -2,2 1022,8 10 -
22.10.2018 03:00:00 4,4 -2,2 1022,5 16 -
22.10.2018 02:00:00 5,0 -2,8 1022,2 16 -
22.10.2018 01:00:00 4,4 -2,2 1022,1 16 -
22.10.2018 00:00:00 4,4 -3,3 1021,7 16 -
21.10.2018 23:00:00 5,0 -3,9 1021,5 16 -
21.10.2018 22:00:00 5,0 -4,4 1021,1 16 -
21.10.2018 21:00:00 5,6 -4,4 1020,6 16 -
21.10.2018 20:00:00 5,6 -4,4 1019,9 16 -
21.10.2018 19:00:00 6,1 -5,0 1019,0 16 -
21.10.2018 18:00:00 6,7 -4,4 1017,9 16 -
21.10.2018 17:00:00 7,2 -4,4 1016,3 16 -
21.10.2018 16:00:00 7,8 -3,9 1015,5 16 -
21.10.2018 15:00:00 7,8 -3,9 1015,0 16 -
21.10.2018 14:00:00 7,8 -3,9 1014,4 16 -
21.10.2018 13:00:00 7,2 -3,3 1014,2 16 -
21.10.2018 12:00:00 7,2 -3,3 1014,5 16 -
21.10.2018 11:00:00 7,2 -3,3 1014,1 16 -
21.10.2018 10:00:00 7,2 -2,8 1013,2 16 -
21.10.2018 09:00:00 7,2 -2,2 1012,0 16 -
21.10.2018 08:00:00 8,9 -0,6 1009,9 16 -
21.10.2018 07:00:00 8,9 3,3 1007,8 16 -
21.10.2018 06:00:00 9,4 3,9 1006,1 16 -
21.10.2018 05:00:00 9,4 5,0 1004,6 16 -
21.10.2018 04:00:00 10,0 6,1 1003,3 16 -
21.10.2018 03:00:00 10,0 7,2 1003,1 16 -
21.10.2018 02:00:00 10,0 6,7 1002,3 16 0,0
21.10.2018 01:00:00 11,1 5,6 1003,3 16 0,0
21.10.2018 00:00:00 11,7 5,6 1003,0 16 -
20.10.2018 23:00:00 11,1 5,6 1003,4 16 -
20.10.2018 22:00:00 12,2 6,1 1002,8 16 -
20.10.2018 21:00:00 14,4 5,6 1002,7 16 -
20.10.2018 20:00:00 13,9 6,1 1002,7 16 -
20.10.2018 19:00:00 14,4 6,1 1002,5 16 -
20.10.2018 18:00:00 15,0 6,1 1002,7 16 -
20.10.2018 17:00:00 16,1 7,2 1002,5 16 -
20.10.2018 16:00:00 16,1 7,8 1002,9 16 -
20.10.2018 15:00:00 15,6 7,8 1004,0 16 -
20.10.2018 14:00:00 15,6 8,9 1004,6 16 -
20.10.2018 13:00:00 15,0 9,4 1005,6 16 -
20.10.2018 12:00:00 14,4 9,4 1006,3 16 -
20.10.2018 11:00:00 13,9 10,6 1006,6 16 -
20.10.2018 10:00:00 13,3 11,1 1007,0 16 -
20.10.2018 09:00:00 12,8 11,1 1007,8 15 -
20.10.2018 08:00:00 12,8 10,6 1007,7 16 -
20.10.2018 07:00:00 12,2 11,1 1007,0 16 -
20.10.2018 06:00:00 12,2 10,0 1007,3 16 0,3
20.10.2018 05:00:00 12,2 10,0 1008,0 13 0,3
20.10.2018 04:00:00 11,7 10,0 1009,0 16 0,8
20.10.2018 03:00:00 12,2 8,9 1010,4 11 0,3
20.10.2018 02:00:00 13,3 7,8 1010,5 16 -
20.10.2018 01:00:00 13,9 7,2 1011,4 16 -
20.10.2018 00:00:00 13,9 6,7 1012,9 16 -
19.10.2018 23:00:00 13,9 5,6 1013,7 16 -
19.10.2018 22:00:00 13,3 6,7 1015,4 16 -
19.10.2018 21:00:00 13,3 6,7 1015,6 16 -
19.10.2018 20:00:00 13,3 5,6 1017,1 16 -
19.10.2018 19:00:00 13,3 4,4 1017,2 16 -
19.10.2018 18:00:00 12,8 4,4 1017,6 16 -
19.10.2018 17:00:00 13,3 3,3 1018,2 16 -
19.10.2018 16:00:00 15,0 0,0 1018,7 16 -
19.10.2018 15:00:00 15,0 1,1 1019,8 16 -
19.10.2018 14:00:00 14,4 2,8 1021,0 16 -
19.10.2018 13:00:00 13,3 1,7 1022,5 16 -
19.10.2018 12:00:00 11,7 1,1 1023,6 16 -
19.10.2018 11:00:00 10,0 1,1 1024,7 16 -
19.10.2018 10:00:00 8,9 0,6 1025,5 16 -
19.10.2018 09:00:00 7,8 0,6 1026,1 16 -
19.10.2018 08:00:00 6,7 1,1 1026,4 16 -
19.10.2018 07:00:00 6,7 0,6 1026,3 16 -
19.10.2018 06:00:00 6,7 0,0 1026,2 16 -
19.10.2018 05:00:00 6,7 -1,1 1026,2 16 -
19.10.2018 04:00:00 6,1 -1,7 1026,5 16 -
19.10.2018 03:00:00 6,1 -1,1 1026,8 16 -
19.10.2018 02:00:00 6,7 -0,6 1026,9 16 -
19.10.2018 01:00:00 6,1 -1,7 1027,1 16 -
19.10.2018 00:00:00 6,1 -1,1 1027,5 16 -
18.10.2018 23:00:00 6,7 -2,2 1027,8 16 -
18.10.2018 22:00:00 7,2 -2,2 1027,8 16 -
18.10.2018 21:00:00 8,3 -3,9 1027,5 16 -
18.10.2018 20:00:00 8,3 -4,4 1027,3 16 -
18.10.2018 19:00:00 8,9 -4,4 1027,3 16 -
18.10.2018 18:00:00 9,4 -5,0 1026,6 16 -
18.10.2018 17:00:00 10,0 -6,7 1026,3 16 -
18.10.2018 16:00:00 10,0 -6,1 1026,2 16 -
18.10.2018 15:00:00 9,4 -6,7 1026,4 16 -
18.10.2018 14:00:00 9,4 -7,2 1026,8 16 -
18.10.2018 13:00:00 8,9 -6,1 1027,1 16 -
18.10.2018 12:00:00 7,8 -5,6 1027,5 16 -
18.10.2018 11:00:00 6,7 -5,6 1027,5 16 -
18.10.2018 10:00:00 6,1 -5,0 1027,3 16 -
18.10.2018 09:00:00 5,6 -4,4 1027,1 16 -
18.10.2018 08:00:00 5,6 -3,9 1026,1 16 -
18.10.2018 07:00:00 6,1 -2,8 1025,1 16 -
18.10.2018 06:00:00 6,1 -2,2 1024,2 16 -
18.10.2018 05:00:00 6,7 -3,3 1023,2 16 -
18.10.2018 04:00:00 6,7 -3,3 1022,1 16 -
18.10.2018 03:00:00 7,2 -3,9 1021,5 16 -
18.10.2018 02:00:00 7,8 -2,2 1021,1 16 -
18.10.2018 01:00:00 8,3 -1,1 1020,8 16 -
18.10.2018 00:00:00 8,9 -1,7 1020,1 16 -
17.10.2018 23:00:00 - - - - -
17.10.2018 22:00:00 10,6 0,6 1018,4 16 -
17.10.2018 21:00:00 11,7 0,6 1017,1 16 -
17.10.2018 20:00:00 12,2 1,7 1016,2 16 -
17.10.2018 19:00:00 12,8 3,9 1014,8 16 -

tt = Température de l'air
td = dewpoint
ppp = reduced air pressure
vv = visibility
rr = Quantités de précipitations

stations d'obs. à proximité